This is the latest recevied weather packets stored in our database for station/object KD4VIF. If no packets are shown the sender has not sent any weather packets the latest 10 day(s).
| Time | Temp. | Humidity | Pressure | Rain* | Wind** | Luminosity | Snow |
|---|---|---|---|---|---|---|---|
| 1778113303 | 22.22° C | 100% | 1010.3 hPa | 0 mm | 0 m/s | - | - |
| 1778112403 | 22.78° C | 100% | 1010.5 hPa | 0 mm | 0 m/s | - | - |
| 1778112102 | 22.78° C | 100% | 1010.6 hPa | 0 mm | 0 m/s | - | - |
| 1778111803 | 23.33° C | 100% | 1010.6 hPa | 0 mm | 0 m/s | - | - |
| 1778111502 | 22.78° C | 100% | 1010.5 hPa | 0 mm | 0 m/s | - | - |
| 1778111203 | 22.78° C | 100% | 1010.4 hPa | 0 mm | 0 m/s | - | - |
| 1778110902 | 23.33° C | 100% | 1010.5 hPa | 0 mm | 0 m/s | - | - |
| 1778110603 | 23.33° C | 100% | 1010.6 hPa | 0 mm | 0 m/s | - | - |
| 1778110002 | 23.33° C | 100% | 1010.3 hPa | 0 mm | 0 m/s | - | - |
| 1778109402 | 23.89° C | 100% | 1010.3 hPa | 0 mm | 0 m/s | - | - |
| 1778108802 | 23.89° C | 100% | 1010.5 hPa | 0 mm | 0 m/s | - | - |
| 1778108503 | 23.89° C | 100% | 1010.5 hPa | 0 mm | 0 m/s | - | - |
| 1778108202 | 24.44° C | 100% | 1010.5 hPa | 0 mm | 0 m/s | - | - |
| 1778107902 | 24.44° C | 100% | 1010.6 hPa | 0 mm | 0 m/s | - | - |
| 1778107602 | 24.44° C | 100% | 1010.8 hPa | 0 mm | 0 m/s | - | - |
| 1778107302 | 25° C | 100% | 1010.9 hPa | 0 mm | 0 m/s | - | - |
| 1778107003 | 25.56° C | 100% | 1010.6 hPa | 0 mm | 0 m/s | - | - |
| 1778106702 | 25.56° C | 100% | 1010.6 hPa | 0 mm | 0 m/s | - | - |
| 1778106102 | 25° C | 100% | 1010.9 hPa | 0 mm | 0 m/s | - | - |
| 1778105802 | 25.56° C | 100% | 1010.7 hPa | 0 mm | 0 m/s | - | - |
| 1778105202 | 25.56° C | 100% | 1010.8 hPa | 0 mm | 0 m/s | - | - |
| 1778104902 | 26.11° C | 100% | 1011 hPa | 0 mm | 0 m/s | - | - |
| 1778104602 | 26.11° C | 100% | 1010.9 hPa | 0 mm | 0.89 m/s, 296° | - | - |
| 1778104303 | 26.11° C | 100% | 1010.9 hPa | 0 mm | 0.89 m/s, 315° | - | - |
| 1778104003 | 26.11° C | 100% | 1010.8 hPa | 0 mm | 1.34 m/s, 316° | - | - |
* Rain latest hour (hover to see other rain measurements)
** Current wind speed in m/s (hover to see current wind gust speed)